THOR ABLESTAR DEB, 644

Orbit data source: Space-Track

THOR ABLESTAR DEB, 644 is space debris in LEO originally from a launch on Thu, 29 Jun 1961 UTC launched from the Air Force Eastern Test Range (AFETR). Debris objects in space refer to the collection of defunct objects orbiting the Earth. Examples of debris include non-operational satellites, rocket bodies, and fragments generated from explosions, collisions, or faulty payload assembly.

Loading next visibility...
Identifier
644, 1961-015GV
Orbit
LEO
Country
Flag of USUS
Related business
Manufacturer
Unknown
Mission
Spacecraft
Bus & Motor
Unknown
Mass
Unknown
Launch date (UTC)
1961-06-29 (65 years ago)
Launch vehicle
Unknown
Launch site
Air Force Eastern Test Range (AFETR)
Object type
Payload
Rocket body
Debris
Shape & HBR
Unknown shape, 0.1 m
Radar Cross Section
Small (<0.1 m²)

Expand to show TLE details & history
Last TLE update: 12 hours ago

TLE from 12 hours ago
0 THOR ABLESTAR DEB
1   644U 61015GV  26037.96920231  .00000867  00000-0  11531-2 0  9991
2   644  67.0968 235.0469 0139554 210.0029 268.9928 13.61165597180010
Epoch: 2026-02-06T23:15Z
TLE epoch observation values (Epoch: 2026-02-06T23:15:39.079Z)
Latitude
54.98442°
Longitude
-107.82874°
Altitude
1,042.999 km
Speed
7.334 km/s
True Right ascension
01h 12m 44s
True Declination
54° 49' 44"
Sunlit
Object was in daylight at epoch
Visualization orbit readout
Latitude
Unknown
Longitude
Unknown
Altitude
Unknown
Speed
Unknown
Apparent Right ascension
Unknown
Apparent Declination
Unknown
Sunlit
N/A
Visualization observer readout
Local Sidereal Time
13:14:10
Azimuth
Unknown
Elevation
Unknown
Doppler factor
Unknown
Orbital elements
Apogee altitude
1,133.223 km
Perigee altitude
926.461 km
Semi-major axis
7,407.979 km
Eccentricity
0.01396
Inclination
67.0968°
RAAN
235.0469°
Arg. of periapsis
210.0029°
True anomaly
267.39457°
Mean anomaly
268.9928°
Eccentric anomaly
268.19361°
Mean motion
3.40403 °/min
Orbital period
105.76 mins
BSTAR
0.0011531
Loading maneuver chart data...
Computing Atmospheric mass density...

Documentation

Showing up to 5 results
|